Location: Venise Bay
(45.0825°N, 73.1481°W)
Time: 20:31:12
(UTC-05:00)

ISS - Pass Details

Date: 02 December 2021
Orbit: 413 x 422 km, 51.6° (Epoch: 24 January)

Event Time Altitude Azimuth Distance (km) Brightness Sun altitude
Rises 18:02:13 0° 300° (WNW) 2,385 0.8 -18.9°
Reaches altitude 10° 18:04:22 10° 306° (NW) 1,515 -0.4 -19.2°
Enters shadow 18:07:17 46° 356° (N) 583 -3.2 -19.7°
